Vorticity
nan nan nan nan nan nan nan nan nan nan nan nan nan nan nan nan nan nan nan nan nan nan nan nan nan nan nan nan nan nan nan nan nan nan nan nan nan nan nan nan nan nan nan nan nan nan nan nan nan nan nan nan nan nan nan nan nan nan nan nan nan nan nan nan nan nan nan nan nan
nan 7 7 7 5 5 7 9 9 9 9 9 11 11 10 9 8 8 7 7 8 10 10 10 13 15 17 13 8 8 9 9 9 9 10 10 10 9 7 8 9 9 9 7 5 5 7 7 6 7 8 8 8 8 9 10 10 9 9 7 7 8 9 8 8 8 8 8 nan
nan 7 7 6 6 5 6 7 10 11 8 7 9 11 10 9 9 9 9 8 9 10 10 12 14 15 14 9 7 8 10 9 9 9 9 10 9 8 7 9 10 9 7 5 6 7 9 8 7 7 8 9 10 8 7 8 9 9 8 6 7 9 10 9 9 9 8 9 nan
nan 7 7 9 8 5 2 6 12 10 5 5 8 10 10 10 10 10 10 10 8 9 11 14 14 13 11 9 8 9 10 10 9 8 8 9 9 9 9 9 9 7 6 7 8 9 10 8 6 7 10 11 8 6 6 9 9 9 8 8 8 10 10 9 9 9 9 9 nan
nan 6 6 11 10 4 2 8 11 7 3 5 9 10 9 8 9 11 12 10 9 10 14 15 13 12 12 11 10 9 10 9 7 6 8 9 9 9 9 9 7 6 6 8 9 9 8 6 6 8 10 8 6 7 9 10 8 8 8 9 10 10 10 10 8 8 9 8 nan
nan 7 7 11 10 4 4 11 12 6 5 9 13 11 8 7 10 12 12 10 11 13 15 12 10 11 11 10 9 8 7 7 7 8 9 8 8 10 10 8 7 7 8 9 9 8 6 4 6 8 9 8 8 10 12 11 9 8 8 8 9 10 11 10 9 9 9 9 nan
nan 8 8 11 10 6 7 11 10 8 7 12 14 11 8 9 13 14 11 10 12 13 11 9 10 11 11 9 7 7 6 7 9 10 8 8 10 10 9 8 8 9 9 9 7 6 6 5 6 8 9 8 7 8 10 11 10 9 8 7 7 10 11 10 9 10 10 10 nan
nan 10 10 11 11 9 10 10 8 7 7 11 15 13 10 11 14 13 10 9 11 10 7 10 15 14 12 9 8 7 7 8 8 8 8 9 11 9 8 7 8 8 8 7 6 7 6 5 7 9 9 7 7 8 9 11 11 9 8 6 7 8 10 10 11 11 11 9 nan
nan 12 12 12 12 11 12 11 10 9 10 13 14 12 11 12 12 9 6 7 10 7 7 13 18 15 12 9 8 7 7 7 7 7 8 10 10 8 6 6 8 7 7 6 7 7 6 6 10 11 10 9 9 9 10 10 10 8 7 6 7 8 9 10 11 12 12 9 nan
nan 10 10 10 11 11 12 12 12 11 12 13 13 11 12 11 8 5 4 8 11 9 9 14 16 13 11 8 6 7 7 6 7 8 8 9 9 7 6 7 8 7 6 6 6 6 5 7 11 11 10 10 11 10 10 10 9 7 6 7 9 8 8 8 10 11 11 10 nan
nan 9 9 10 11 11 11 10 10 11 12 13 12 11 11 9 7 5 7 12 13 10 8 11 13 10 7 6 6 7 7 7 9 9 8 9 9 8 8 8 7 6 6 6 5 5 5 8 10 9 9 9 10 10 9 9 8 7 6 8 10 9 7 7 8 10 11 11 nan
nan 9 9 11 12 11 10 8 8 11 12 13 11 9 8 8 9 9 10 13 11 7 7 11 12 9 5 6 9 8 8 9 9 9 8 9 9 9 8 8 7 6 6 6 6 7 9 11 11 9 7 7 8 9 9 9 6 6 5 7 8 9 8 7 8 9 11 11 nan
nan 10 10 12 13 11 9 7 8 11 12 12 9 7 8 11 11 10 10 10 7 7 10 13 11 8 6 8 9 9 9 9 8 9 10 10 9 9 8 7 7 6 6 5 8 10 12 12 11 9 7 6 6 9 10 9 6 6 5 6 7 7 7 8 8 9 10 10 nan
nan 11 12 12 11 9 8 7 7 10 13 12 8 8 9 11 10 9 9 10 9 9 10 10 8 8 10 12 11 11 10 9 10 10 11 10 10 9 7 7 7 6 6 6 9 11 11 11 10 8 7 6 6 7 9 9 8 8 7 7 6 7 7 8 9 9 9 8 nan
nan 12 12 11 9 7 7 6 6 10 12 10 9 9 9 10 10 9 10 12 10 7 8 8 8 11 13 13 12 11 10 10 11 11 10 9 9 8 7 7 7 7 7 7 9 10 11 11 9 9 9 8 7 7 8 9 10 10 9 8 7 7 8 9 9 9 8 7 nan
nan 12 11 10 8 7 7 5 7 11 12 11 10 9 8 9 11 12 13 11 7 6 9 9 8 10 12 12 11 9 8 9 10 9 8 8 7 7 6 7 7 7 8 8 9 10 11 11 11 11 11 9 8 8 8 9 10 10 10 9 8 9 10 11 10 9 8 6 nan
nan 11 10 9 7 7 6 7 10 13 13 13 11 8 8 9 12 15 14 9 6 9 11 9 7 9 11 11 8 7 6 8 8 8 8 8 7 6 6 6 7 8 8 9 9 10 10 11 11 12 13 11 9 9 9 9 9 10 10 10 9 10 11 12 11 10 9 7 nan
nan 10 9 8 7 7 8 10 12 14 13 11 9 8 9 12 15 16 15 10 8 10 10 7 8 10 12 11 8 8 8 8 8 8 8 8 7 6 6 7 8 9 10 10 9 9 9 9 10 11 12 11 10 10 10 10 10 11 11 10 10 10 11 12 12 11 11 9 nan
nan 9 8 6 6 8 10 12 13 12 10 8 9 11 13 15 15 14 14 11 10 10 8 6 8 10 12 11 9 10 10 9 9 8 8 7 6 6 7 8 9 10 10 10 9 9 9 9 10 10 11 11 11 11 11 11 11 11 11 10 10 10 10 11 12 11 11 9 nan
nan 8 7 6 8 10 12 12 11 10 8 9 12 12 13 13 14 14 12 10 10 9 8 8 9 11 11 10 10 9 8 9 11 9 7 6 6 7 8 9 9 9 9 9 9 9 9 9 10 10 10 10 10 11 11 11 11 11 11 10 10 10 10 10 11 11 11 10 nan
nan 7 7 9 11 12 13 12 11 10 9 11 12 11 11 12 13 13 11 10 10 10 10 10 11 10 9 8 8 7 6 10 11 9 6 6 7 7 8 9 9 9 9 9 9 9 9 10 10 10 10 10 10 10 9 10 10 10 10 10 10 10 10 10 11 11 11 11 nan
nan 7 9 12 14 14 13 12 11 10 10 10 10 10 10 11 11 11 10 10 10 10 11 11 10 9 8 8 8 8 7 10 11 8 7 8 8 9 9 9 9 9 8 8 8 8 8 9 10 10 9 9 9 9 9 9 9 9 9 10 10 10 10 11 11 11 11 11 nan
nan 9 11 13 15 14 13 11 10 10 10 10 10 10 10 10 10 10 10 10 10 11 10 8 9 10 10 10 10 9 9 9 9 8 9 10 10 10 10 9 9 8 7 6 7 7 7 7 7 8 8 8 8 8 8 8 8 8 8 9 9 10 10 10 10 10 11 11 nan
nan 10 11 14 16 13 10 10 10 10 10 10 10 10 10 10 9 9 10 10 10 10 8 8 10 11 11 10 9 9 9 8 8 8 9 10 10 9 8 8 8 7 6 8 12 12 11 9 8 7 7 8 7 7 8 8 8 8 8 8 8 9 10 10 10 10 10 11 nan
nan 12 13 15 14 11 10 10 10 10 10 10 10 10 10 10 9 9 9 9 9 8 9 10 10 9 9 9 8 8 8 8 7 6 7 8 8 8 8 8 7 7 9 15 17 14 12 13 12 10 8 7 8 8 8 8 8 8 8 7 8 8 8 9 10 10 10 10 nan
nan 13 13 13 12 10 10 10 10 10 11 11 11 11 11 9 8 9 9 8 8 9 9 9 8 8 8 8 9 9 8 7 7 7 7 6 7 8 8 9 8 9 14 18 14 9 8 10 12 12 11 8 8 8 8 8 8 8 8 8 8 8 7 8 8 9 9 10 nan
nan 12 11 11 10 10 9 9 11 11 12 12 12 11 10 9 10 11 9 8 9 8 7 7 7 6 4 7 10 8 7 7 8 8 7 7 7 7 8 8 9 12 18 18 11 7 6 6 8 10 11 11 9 9 9 9 8 8 8 8 8 7 7 7 7 8 8 9 nan
nan 11 11 10 10 9 9 11 12 13 13 13 12 11 11 11 11 10 9 9 8 5 4 4 4 3 4 9 10 8 7 7 7 7 7 8 8 8 8 8 11 15 19 16 9 7 6 6 6 8 11 13 10 9 8 8 8 9 9 8 8 8 8 8 8 8 8 8 nan
nan 11 10 10 9 9 10 12 13 13 13 12 12 12 12 11 10 10 10 8 5 2 2 4 6 8 11 12 9 7 6 6 7 8 9 9 8 7 7 8 11 15 16 12 7 6 6 6 6 7 9 13 12 10 9 8 8 8 9 9 8 8 8 9 9 10 10 10 nan
nan 11 10 10 10 10 12 13 13 12 11 11 13 12 11 10 10 9 7 4 2 3 7 11 13 15 14 11 7 7 6 6 8 10 10 9 7 6 6 8 10 13 13 9 5 5 5 6 6 7 7 10 12 11 10 9 9 9 9 9 9 9 9 9 10 11 12 12 nan
nan 11 11 11 11 12 13 13 13 12 11 13 13 11 9 8 7 5 4 3 5 9 13 15 16 14 11 9 8 8 8 8 10 11 10 8 6 6 6 8 10 12 12 8 4 4 5 6 7 7 7 8 10 11 10 9 9 9 9 9 8 9 10 11 12 12 13 13 nan
nan 12 11 11 12 12 13 13 13 12 12 12 10 8 7 6 6 6 7 9 11 12 12 12 12 10 8 8 9 10 10 11 11 11 10 9 7 6 7 8 10 12 12 6 4 4 5 6 7 7 7 8 10 11 10 9 9 9 9 9 9 10 11 11 12 12 13 14 nan
nan 12 12 12 12 12 13 12 11 10 10 9 8 7 7 7 8 10 10 11 11 10 10 9 8 6 6 6 7 9 10 10 11 10 9 8 7 7 6 6 9 12 11 5 4 5 5 6 7 7 8 9 10 9 9 9 9 9 9 9 10 11 11 11 11 12 12 13 nan
nan 11 11 11 11 11 11 10 9 9 9 9 8 8 8 8 9 10 10 10 11 10 8 7 6 5 6 7 9 9 9 9 9 8 8 8 8 7 6 6 10 13 10 5 4 5 5 6 8 9 9 8 8 8 8 9 9 9 9 10 11 11 11 11 11 11 11 11 nan
nan 11 11 11 10 10 10 10 10 10 10 9 8 8 8 9 9 9 11 12 10 9 8 7 7 7 9 11 11 10 9 8 8 8 8 9 8 7 6 6 11 15 10 5 4 4 5 6 9 11 10 6 6 8 8 8 8 8 9 9 10 10 10 11 11 11 11 11 nan
nan 11 11 10 9 10 10 10 10 10 10 9 8 7 8 9 9 11 12 10 8 8 9 9 9 10 11 11 10 9 8 8 8 8 8 8 8 7 6 6 10 15 11 5 3 4 5 7 11 11 9 5 6 8 9 8 8 8 8 9 9 9 9 10 10 10 11 11 nan
nan 11 10 9 9 10 10 10 10 10 9 8 7 8 8 9 9 10 9 7 5 6 8 8 10 9 9 8 8 9 9 9 9 9 8 8 7 7 6 5 8 13 12 6 4 4 5 8 11 10 7 5 7 8 9 9 9 8 8 9 9 9 10 10 10 10 10 10 nan
nan 11 11 10 10 11 11 10 10 10 8 7 8 8 8 7 6 6 7 6 5 6 7 8 8 8 8 9 9 9 10 10 10 8 8 7 8 8 7 5 6 9 13 9 5 4 5 8 11 11 9 7 8 8 8 9 9 9 8 9 9 10 11 11 10 10 9 4 nan
nan 12 11 11 11 11 10 10 10 8 7 7 8 8 7 6 7 9 9 9 10 9 9 9 9 9 9 9 8 8 9 10 10 9 8 9 10 11 9 6 6 8 13 12 7 4 4 8 12 13 11 9 8 8 8 8 8 8 8 8 9 10 12 11 11 10 8 3 nan
nan 12 12 11 11 10 10 10 9 8 7 8 9 8 7 9 11 11 11 11 11 11 10 10 10 9 8 7 6 7 8 9 10 11 11 12 13 12 8 6 7 8 12 12 7 4 4 8 12 13 10 7 8 8 8 8 7 8 8 8 8 9 10 11 11 10 9 6 nan
nan nan nan nan nan nan nan nan nan nan nan nan nan nan nan nan nan nan nan nan nan nan nan nan nan nan nan nan nan nan nan nan nan nan nan nan nan nan nan nan nan nan nan nan nan nan nan nan nan nan nan nan nan nan nan nan nan nan nan nan nan nan nan nan nan nan nan nan nan
CAPE
nan nan nan nan nan nan nan nan nan nan nan nan nan nan nan nan nan nan nan nan nan nan nan nan nan nan nan nan nan nan nan nan nan nan nan nan nan nan nan nan nan nan nan nan nan nan nan nan nan nan nan nan nan nan nan nan nan nan nan nan nan nan nan nan nan nan nan nan nan
nan nan nan nan nan nan nan nan nan nan nan nan nan nan nan nan nan nan nan nan nan nan nan nan nan nan nan nan nan nan nan nan nan nan nan nan nan nan nan nan nan nan nan nan nan nan nan nan nan nan nan nan nan nan nan nan nan nan nan nan nan nan nan nan nan nan nan nan nan
nan nan nan nan nan nan nan nan nan nan nan nan nan nan nan nan nan nan nan nan nan nan nan nan nan nan nan nan nan nan nan nan nan nan nan nan nan nan nan nan nan nan nan nan nan nan nan nan nan nan nan nan nan nan nan nan nan nan nan nan nan nan nan nan nan nan nan nan nan
nan nan nan nan nan nan nan nan nan nan nan nan nan nan nan nan nan nan nan nan nan nan nan nan nan nan nan nan nan nan nan nan nan nan nan nan nan nan nan nan nan nan nan nan nan nan nan nan nan nan nan nan nan nan nan nan nan nan nan nan nan nan nan nan nan nan nan nan nan
nan nan nan nan nan nan nan nan nan nan nan nan nan nan nan nan nan nan nan nan nan nan nan nan nan nan nan nan nan nan nan nan nan nan nan nan nan nan nan nan nan nan nan nan nan nan nan nan nan nan nan nan nan nan nan nan nan nan nan nan nan nan nan nan nan nan nan nan nan
nan nan nan nan nan nan nan nan nan nan nan nan nan nan nan nan nan nan nan nan nan nan nan nan nan nan nan nan nan nan nan nan nan nan nan nan nan nan nan nan nan nan nan nan nan nan nan nan nan nan nan nan nan nan nan nan nan nan nan nan nan nan nan nan nan nan nan nan nan
nan nan nan nan nan nan nan nan nan nan nan nan nan nan nan nan nan nan nan nan nan nan nan nan nan nan nan nan nan nan nan nan nan nan nan nan nan nan nan nan nan nan nan nan nan nan nan nan nan nan nan nan nan nan nan nan nan nan nan nan nan nan nan nan nan nan nan nan nan
nan nan nan nan nan nan nan nan nan nan nan nan nan nan nan nan nan nan nan nan nan nan nan nan nan nan nan nan nan nan nan nan nan nan nan nan nan nan nan nan nan nan nan nan nan nan nan nan nan nan nan nan nan nan nan nan nan nan nan nan nan nan nan nan nan nan nan nan nan
nan nan nan nan nan nan nan nan nan nan nan nan nan nan nan nan nan nan nan nan nan nan nan nan nan nan nan nan nan nan nan nan nan nan nan nan nan nan nan nan nan nan nan nan nan nan nan nan nan nan nan nan nan nan nan nan nan nan nan nan nan nan nan nan nan nan nan nan nan
nan nan nan nan nan nan nan nan nan nan nan nan nan nan nan nan nan nan nan nan nan nan nan nan nan nan nan nan nan nan nan nan nan nan nan nan nan nan nan nan nan nan nan nan nan nan nan nan nan nan nan nan nan nan nan nan nan nan nan nan nan nan nan nan nan nan nan nan nan
nan nan nan nan nan nan nan nan nan nan nan nan nan nan nan nan nan nan nan nan nan nan nan nan nan nan nan nan nan nan nan nan nan nan nan nan nan nan nan nan nan nan nan nan nan nan nan nan nan nan nan nan nan nan nan nan nan nan nan nan nan nan nan nan nan nan nan nan nan
nan nan nan nan nan nan nan nan nan nan nan nan nan nan nan nan nan nan nan nan nan nan nan nan nan nan nan nan nan nan nan nan nan nan nan nan nan nan nan nan nan nan nan nan nan nan nan nan nan nan nan nan nan nan nan nan nan nan nan nan nan nan nan nan nan nan nan nan nan
nan nan nan nan nan nan nan nan nan nan nan nan nan nan nan nan nan nan nan nan nan nan nan nan nan nan nan nan nan nan nan nan nan nan nan nan nan nan nan nan nan nan nan nan nan nan nan nan nan nan nan nan nan nan nan nan nan nan nan nan nan nan nan nan nan nan nan nan nan
nan nan nan nan nan nan nan nan nan nan nan nan nan nan nan nan nan nan nan nan nan nan nan nan nan nan nan nan nan nan nan nan nan nan nan nan nan nan nan nan nan nan nan nan nan nan nan nan nan nan nan nan nan nan nan nan nan nan nan nan nan nan nan nan nan nan nan nan nan
nan nan nan nan nan nan nan nan nan nan nan nan nan nan nan nan nan nan nan nan nan nan nan nan nan nan nan nan nan nan nan nan nan nan nan nan nan nan nan nan nan nan nan nan nan nan nan nan nan nan nan nan nan nan nan nan nan nan nan nan nan nan nan nan nan nan nan nan nan
nan nan nan nan nan nan nan nan nan nan nan nan nan nan nan nan nan nan nan nan nan nan nan nan nan nan nan nan nan nan nan nan nan nan nan nan nan nan nan nan nan nan nan nan nan nan nan nan nan nan nan nan nan nan nan nan nan nan nan nan nan nan nan nan nan nan nan nan nan
nan nan nan nan nan nan nan nan nan nan nan nan nan nan nan nan nan nan nan nan nan nan nan nan nan nan nan nan nan nan nan nan nan nan nan nan nan nan nan nan nan nan nan nan nan nan nan nan nan nan nan nan nan nan nan nan nan nan nan nan nan nan nan nan nan nan nan nan nan
nan nan nan nan nan nan nan nan nan nan nan nan nan nan nan nan nan nan nan nan nan nan nan nan nan nan nan nan nan nan nan nan nan nan nan nan nan nan nan nan nan nan nan nan nan nan nan nan nan nan nan nan nan nan nan nan nan nan nan nan nan nan nan nan nan nan nan nan nan
nan nan nan nan nan nan nan nan nan nan nan nan nan nan nan nan nan nan nan nan nan nan nan nan nan nan nan nan nan nan nan nan nan nan nan nan nan nan nan nan nan nan nan nan nan nan nan nan nan nan nan nan nan nan nan nan nan nan nan nan nan nan nan nan nan nan nan nan nan
nan nan nan nan nan nan nan nan nan nan nan nan nan nan nan nan nan nan nan nan nan nan nan nan nan nan nan nan nan nan nan nan nan nan nan nan nan nan nan nan nan nan nan nan nan nan nan nan nan nan nan nan nan nan nan nan nan nan nan nan nan nan nan nan nan nan nan nan nan
nan nan nan nan nan nan nan nan nan nan nan nan nan nan nan nan nan nan nan nan nan nan nan nan nan nan nan nan nan nan nan nan nan nan nan nan nan nan nan nan nan nan nan nan nan nan nan nan nan nan nan nan nan nan nan nan nan nan nan nan nan nan nan nan nan nan nan nan nan
nan nan nan nan nan nan nan nan nan nan nan nan nan nan nan nan nan nan nan nan nan nan nan nan nan nan nan nan nan nan nan nan nan nan nan nan nan nan nan nan nan nan nan nan nan nan nan nan nan nan nan nan nan nan nan nan nan nan nan nan nan nan nan nan nan nan nan nan nan
nan nan nan nan nan nan nan nan nan nan nan nan nan nan nan nan nan nan nan nan nan nan nan nan nan nan nan nan nan nan nan nan nan nan nan nan nan nan nan nan nan nan nan nan nan nan nan nan nan nan nan nan nan nan nan nan nan nan nan nan nan nan nan nan nan nan nan nan nan
nan nan nan nan nan nan nan nan nan nan nan nan nan nan nan nan nan nan nan nan nan nan nan nan nan nan nan nan nan nan nan nan nan nan nan nan nan nan nan nan nan nan nan nan nan nan nan nan nan nan nan nan nan nan nan nan nan nan nan nan nan nan nan nan nan nan nan nan nan
nan nan nan nan nan nan nan nan nan nan nan nan nan nan nan nan nan nan nan nan nan nan nan nan nan nan nan nan nan nan nan nan nan nan nan nan nan nan nan nan nan nan nan nan nan nan nan nan nan nan nan nan nan nan nan nan nan nan nan nan nan nan nan nan nan nan nan nan nan
nan nan nan nan nan nan nan nan nan nan nan nan nan nan nan nan nan nan nan nan nan nan nan nan nan nan nan nan nan nan nan nan nan nan nan nan nan nan nan nan nan nan nan nan nan nan nan nan nan nan nan nan nan nan nan nan nan nan nan nan nan nan nan nan nan nan nan nan nan
nan nan nan nan nan nan nan nan nan nan nan nan nan nan nan nan nan nan nan nan nan nan nan nan nan nan nan nan nan nan nan nan nan nan nan nan nan nan nan nan nan nan nan nan nan nan nan nan nan nan nan nan nan nan nan nan nan nan nan nan nan nan nan nan nan nan nan nan nan
nan nan nan nan nan nan nan nan nan nan nan nan nan nan nan nan nan nan nan nan nan nan nan nan nan nan nan nan nan nan nan nan nan nan nan nan nan nan nan nan nan nan nan nan nan nan nan nan nan nan nan nan nan nan nan nan nan nan nan nan nan nan nan nan nan nan nan nan nan
nan nan nan nan nan nan nan nan nan nan nan nan nan nan nan nan nan nan nan nan nan nan nan nan nan nan nan nan nan nan nan nan nan nan nan nan nan nan nan nan nan nan nan nan nan nan nan nan nan nan nan nan nan nan nan nan nan nan nan nan nan nan nan nan nan nan nan nan nan
nan nan nan nan nan nan nan nan nan nan nan nan nan nan nan nan nan nan nan nan nan nan nan nan nan nan nan nan nan nan nan nan nan nan nan nan nan nan nan nan nan nan nan nan nan nan nan nan nan nan nan nan nan nan nan nan nan nan nan nan nan nan nan nan nan nan nan nan nan
nan nan nan nan nan nan nan nan nan nan nan nan nan nan nan nan nan nan nan nan nan nan nan nan nan nan nan nan nan nan nan nan nan nan nan nan nan nan nan nan nan nan nan nan nan nan nan nan nan nan nan nan nan nan nan nan nan nan nan nan nan nan nan nan nan nan nan nan nan
nan nan nan nan nan nan nan nan nan nan nan nan nan nan nan nan nan nan nan nan nan nan nan nan nan nan nan nan nan nan nan nan nan nan nan nan nan nan nan nan nan nan nan nan nan nan nan nan nan nan nan nan nan nan nan nan nan nan nan nan nan nan nan nan nan nan nan nan nan
nan nan nan nan nan nan nan nan nan nan nan nan nan nan nan nan nan nan nan nan nan nan nan nan nan nan nan nan nan nan nan nan nan nan nan nan nan nan nan nan nan nan nan nan nan nan nan nan nan nan nan nan nan nan nan nan nan nan nan nan nan nan nan nan nan nan nan nan nan
nan nan nan nan nan nan nan nan nan nan nan nan nan nan nan nan nan nan nan nan nan nan nan nan nan nan nan nan nan nan nan nan nan nan nan nan nan nan nan nan nan nan nan nan nan nan nan nan nan nan nan nan nan nan nan nan nan nan nan nan nan nan nan nan nan nan nan nan nan
nan nan nan nan nan nan nan nan nan nan nan nan nan nan nan nan nan nan nan nan nan nan nan nan nan nan nan nan nan nan nan nan nan nan nan nan nan nan nan nan nan nan nan nan nan nan nan nan nan nan nan nan nan nan nan nan nan nan nan nan nan nan nan nan nan nan nan nan nan
nan nan nan nan nan nan nan nan nan nan nan nan nan nan nan nan nan nan nan nan nan nan nan nan nan nan nan nan nan nan nan nan nan nan nan nan nan nan nan nan nan nan nan nan nan nan nan nan nan nan nan nan nan nan nan nan nan nan nan nan nan nan nan nan nan nan nan nan nan
nan nan nan nan nan nan nan nan nan nan nan nan nan nan nan nan nan nan nan nan nan nan nan nan nan nan nan nan nan nan nan nan nan nan nan nan nan nan nan nan nan nan nan nan nan nan nan nan nan nan nan nan nan nan nan nan nan nan nan nan nan nan nan nan nan nan nan nan nan
nan nan nan nan nan nan nan nan nan nan nan nan nan nan nan nan nan nan nan nan nan nan nan nan nan nan nan nan nan nan nan nan nan nan nan nan nan nan nan nan nan nan nan nan nan nan nan nan nan nan nan nan nan nan nan nan nan nan nan nan nan nan nan nan nan nan nan nan nan
nan nan nan nan nan nan nan nan nan nan nan nan nan nan nan nan nan nan nan nan nan nan nan nan nan nan nan nan nan nan nan nan nan nan nan nan nan nan nan nan nan nan nan nan nan nan nan nan nan nan nan nan nan nan nan nan nan nan nan nan nan nan nan nan nan nan nan nan nan
nan nan nan nan nan nan nan nan nan nan nan nan nan nan nan nan nan nan nan nan nan nan nan nan nan nan nan nan nan nan nan nan nan nan nan nan nan nan nan nan nan nan nan nan nan nan nan nan nan nan nan nan nan nan nan nan nan nan nan nan nan nan nan nan nan nan nan nan nan
nan nan nan nan nan nan nan nan nan nan nan nan nan nan nan nan nan nan nan nan nan nan nan nan nan nan nan nan nan nan nan nan nan nan nan nan nan nan nan nan nan nan nan nan nan nan nan nan nan nan nan nan nan nan nan nan nan nan nan nan nan nan nan nan nan nan nan nan nan